Regional Weather Roundup
Issued by NWS

Home | Current Version | Previous Version | Graphics & Text | Print | Product List | Glossary On
Versions: 1 2 3 4 5 6 7 8 9 10 11 12 13 14 15 16 17 18 19 20 21 22 23 24 25 26 27 28 29 30 31 32 33 34 35 36 37 38 39 40 41 42 43 44 45 46 47 48 49 50
257
ASUS43 KMPX 250210
RWRMN
WEATHER ROUNDUP FOR MINNESOTA
NATIONAL WEATHER SERVICE TWIN CITIES/CHANHASSEN MN
800 PM CST FRI FEB 24 2017


NOTE: "FAIR" INDICATES FEW OR NO CLOUDS BELOW 12,000 FEET WITH NO
SIGNIFICANT WEATHER AND/OR OBSTRUCTIONS TO VISIBILITY. N/A MEANS
CURRENT SKY AND/OR WEATHER CONDITIONS ARE NOT AVAILABLE.

MNZ060>063-068>070-250300-
   Twin Cities Metro

CITY           SKY/WX    TMP DP  RH WIND       PRES   REMARKS
TWIN CITIES    CLOUDY    23   9  55 N21G26    29.88R WCI   8
ST PAUL        CLOUDY    24  12  60 N21G30    29.89R WCI   9
CRYSTAL        CLOUDY    22   9  57 N13G24    29.88R WCI  10
BLAINE         MOCLDY    25  12  58 N17G23    29.88S WCI  11
LAKEVILLE      CLOUDY    21  12  68 NW16G23   29.86R WCI   7
EDEN PRAIRIE   CLOUDY    23  10  57 N16G23    29.87R WCI  10
SOUTH ST PAUL  MOCLDY    25  12  59 N12G21    29.87R WCI  14
LAKE ELMO      FAIR      23  14  68 N12G20    29.87R WCI  12
$$
MNZ001>005-007-008-013>017-022>024-027-028-250300-
   Northwest Minnesota

CITY           SKY/WX    TMP DP  RH WIND       PRES   REMARKS
BEMIDJI        CLEAR     14   6  70 NW16      29.97S WCI  -2
HALLOCK        CLEAR     12   9  85 N5        30.11F WCI   4
ROSEAU         CLEAR     10   5  79 NW9       30.06S WCI  -2
WARROAD        CLEAR     12   3  67 NW13      30.05S WCI  -3
THIEF RVR FALL CLEAR     13   9  84 NW14      30.08S WCI  -2
CROOKSTON      CLEAR     16  10  79 N14       30.11F WCI   1
FOSSTON        CLEAR     12   9  85 NW15      30.04S WCI  -4
DETROIT LAKES  CLEAR     18  12  79 N20       30.02S WCI   1
MOORHEAD       CLEAR     19  10  68 N18       30.09S WCI   4
PARK RAPIDS    CLEAR     17   5  59 NW16      29.95S WCI   2
MAHNOMEN       FAIR      15  10  79 NW16      30.03S WCI   0
$$
MNZ006-009>011-018-025>026-250300-
   North Central Minnesota

CITY           SKY/WX    TMP DP  RH WIND       PRES   REMARKS
BAUDETTE       CLEAR     12   2  64 NW10      29.99F WCI  -1
FLAG ISLAND    CLEAR     12   3  67 NW16      30.02F WCI  -4
INTL FALLS     CLEAR     13   2  61 N15       29.96S WCI  -3
WASKISH        CLEAR     14   5  67 NW6       29.99F WCI   5
BIG FORK       CLEAR     14   3  62 NW5       29.94S WCI   6
LONGVILLE      CLEAR     16   7  67 N6        29.94S WCI   7
GRAND RAPIDS   CLOUDY    15   7  70 NW16      29.93R WCI  -1
CRANE LAKE     CLOUDY    12   1  62 N5        29.95S WCI   4
ORR            CLOUDY    14   1  57 CALM      29.89S
COOK           CLOUDY    12   3  67 CALM      29.90F
WALKER         FAIR      16   5  64 NW10      29.96R WCI   3
$$
MNZ012-019>021-037-250300-
   Northeast Minnesota

CITY           SKY/WX    TMP DP  RH WIND       PRES   REMARKS
DULUTH         CLEAR     17   7  64 N10       29.83F WCI   5
ELY            CLOUDY    14   1  57 NW8       29.86S WCI   3
HIBBING        PTCLDY    14   3  61 N12       29.88F WCI   0
EVELETH        CLOUDY    17  -1  44 N10G21    29.88F WCI   5
DULUTH HARBOR  CLEAR     23  12  63 N17       29.90F WCI   9
TWO HARBORS    CLOUDY    19   9  63 CALM      29.84F
SILVER BAY     PTCLDY    18   5  57 NW5       29.82F WCI  11
GRAND MARAIS     N/A     19   2  47 CALM      29.86F
G MARAIS ARPRT CLOUDY    10   0  61 N13G26    29.76F WCI  -5
$$
MNZ029>031-032-039>041-046>048-054>057-064-250300-
   West Central Minnesota

CITY           SKY/WX    TMP DP  RH WIND       PRES   REMARKS
FERGUS FALLS   PTCLDY    18  12  79 N14G26    30.09S WCI   4
WHEATON        CLOUDY    21  12  68 NW18G26   30.08S WCI   6
MORRIS         CLOUDY    19  12  73 N21G32    30.01S WCI   3
ALEXANDRIA     CLOUDY    20  13  74 NW17G28   29.97R WCI   5
ELBOW LAKE     FAIR      18  12  79 NW17G25   30.02S WCI   3
WADENA         CLEAR     18   9  68 NW16G24   29.97R WCI   3
GLENWOOD       CLOUDY    21  12  68 NW17G31   29.97R WCI   7
APPLETON       CLOUDY    21  14  73 N22G28    30.03R WCI   5
BENSON         CLOUDY    21  12  68 N21G28    30.01R WCI   6
ORTONVILLE     CLOUDY    21  14  73 N16G26    30.05R WCI   7
MADISON        CLOUDY    25  16  68 N22G30    30.04S WCI  10
WILLMAR        FAIR      25  16  68 NW22G28   29.96S WCI  10
$$
MNZ033>034-036-042>043-049>051-058-059-250300-
   Central Minnesota

CITY           SKY/WX    TMP DP  RH WIND       PRES   REMARKS
ST CLOUD       CLOUDY    21   9  59 N12       29.91S WCI   9
SAUK CENTRE    FAIR      21   8  57 NW21      29.94S WCI   6
PAYNESVILLE    CLOUDY    23   9  54 N16G23    29.94R WCI  10
AITKIN         CLOUDY    21   7  53 NW9G18    29.90S WCI  11
PINE RIVER     CLEAR     18   7  62 NW13G18   29.97S WCI   4
BRAINERD       CLOUDY    19   7  59 N20       29.93S WCI   3
STAPLES        CLOUDY    18   9  68 NW15G24   29.95S WCI   3
LONG PRAIRIE   FAIR      21   9  58 NW16G22   29.94S WCI   7
LITTLE FALLS   CLOUDY    23   7  50 NW8       29.93S WCI  14
LITCHFIELD     CLOUDY    25  12  58 N15G22    29.92S WCI  12
BUFFALO        CLOUDY    22  10  59 NW14      29.92R WCI   9
MAPLE LAKE     CLOUDY    23  13  64 NW13G18   29.91F WCI  11
HUTCHINSON     CLEAR     25  12  57 NW17G24   29.92R WCI  11
$$
MNZ037-044-045-052-053-250300-
   East Central Minnesota

CITY           SKY/WX    TMP DP  RH WIND       PRES   REMARKS
PRINCETON      PTCLDY    21  10  63 NW8       29.90S WCI  12
MORA           PTCLDY    21  10  63 N8        29.90S WCI  12
CAMBRIDGE      PTCLDY    23  10  58 NW8       29.87F WCI  14
RUSH CITY      CLOUDY    19  10  68 N8        29.88F WCI   9
MOOSE LAKE     CLEAR     19   9  63 N9G17     29.86F WCI   9
HINCKLEY       FAIR      21  12  68 N6        29.88S WCI  14
CLOQUET        CLEAR     18   7  62 NW15G24   29.86S WCI   3
MCGREGOR       CLOUDY    19  12  73 NW10      29.90S WCI   8
$$
MNZ071>073-080-081-089-090-097-098-250300-
   Southwest Minnesota

CITY           SKY/WX    TMP DP  RH WIND       PRES   REMARKS
MONTEVIDEO     CLOUDY    21  16  79 N25G35    30.01S WCI   4
GRANITE FALLS  CLOUDY    25  17  72 NW22G29   30.01R WCI  10
CANBY          CLOUDY    24  15  68 NW22G28   30.04R WCI   9
MARSHALL       MOCLDY    22  13  68 N26G33    29.98R WCI   5
REDWOOD FALLS  CLEAR     24  12  60 NW17G30   29.95R WCI  11
OLIVIA         CLOUDY    25  16  68 NW21G28   29.94R WCI  10
PIPESTONE      CLOUDY    21  12  68 N17G32    29.97R WCI   7
WINDOM         CLOUDY    21  16  79 NW30      29.91R WCI   3
WORTHINGTON    LGT SNOW  20  15  81 N30       29.92S WCI   1
JACKSON        CLOUDY    21  14  73 NW24G31   29.89R WCI   4
TRACY          CLOUDY    23  16  75 N20G29    29.97R WCI   8
SLAYTON        FLURRIES  21  14  76 N25G35    29.94S WCI   3
$$
MNZ065>067-074>077-082>085-091>093-250300-
   South Central Minnesota

CITY           SKY/WX    TMP DP  RH WIND       PRES   REMARKS
MANKATO          N/A     22  13  68 N23G32    29.87S WCI   6
NEW ULM        CLEAR     25  10  54 N16G24    29.90S WCI  12
ST JAMES       CLEAR     21  14  73 NW20G25   29.91S WCI   6
FAIRMONT       CLOUDY    21  14  74 N18       29.88R WCI   6
GLENCOE        CLOUDY    24  14  66 N15       29.90S WCI  12
FARIBAULT      CLOUDY    21  12  68 NW18G24   29.85R WCI   6
OWATONNA       MOCLDY    21  12  68 NW17      29.82S WCI   7
WASECA         CLOUDY    23  16  74 NW20      29.86R WCI   8
ALBERT LEA     PTCLDY    21  14  73 N14       29.81S WCI   8
$$
MNZ078>079-086>088-094>096-250300-
   Southeast Minnesota

CITY           SKY/WX    TMP DP  RH WIND       PRES   REMARKS
ROCHESTER      CLOUDY    20  16  84 N17       29.78R FOG     WCI   5
RED WING       CLOUDY    23  10  58 N6        29.83S WCI  16
STANTON        CLOUDY    24  14  66 N15       29.83S WCI  11
WINONA         LGT SNOW  23  19  86 NW14G20   29.80S WCI  11
AUSTIN         PTCLDY    21  14  73 N13G21    29.80R WCI   9
PRESTON        CLOUDY    19  16  87 N21G29    29.75S WCI   3
$$
ABBREVIATIONS USED IN REMARKS
   TC - TEMPERATURES IN CELSIUS
  WCI - WIND CHILL INDEX
   HX - HEAT INDEX
  VSB - VISIBILITY
$$




USA.gov is the U.S. government's official web portal to all federal, state and local government web resources and services.